When you browse on this site, cookies collect data to enhance your experience and personalize the content and advertising you see.
Visit our Privacy Policy to learn more. By continuing to use the site, you agree to this use of cookies and data.
  • In Hungary
  • List of Countries
  • For 7 days
  • Water Temperature
  • Satellite Maps
  • Weather Map
  • News
  • Weather Widgets
  • user-avatar
    Login

    Hourly Weather Naugatuck

    Today, 17 July, Wednesday

    Time Temperature Precipitation Wind Pressure Humidity
    00:00 +24°C° 0.2 mm 2 mps 745 mmHg 83%
    01:00 +24°C° 0.2 mm 2 mps 745 mmHg 87%
    02:00 +23°C° 0.1 mm 2 mps 745 mmHg 88%
    03:00 +23°C° 0.1 mm 2 mps 745 mmHg 89%
    04:00 +23°C° 0.1 mm 2 mps 745 mmHg 91%
    05:00 +24°C° 0 mm 2 mps 745 mmHg 89%
    06:00 +25°C° 0 mm 2 mps 745 mmHg 86%
    07:00 +26°C° 0 mm 2 mps 745 mmHg 84%
    08:00 +27°C° 0 mm 2 mps 745 mmHg 77%
    09:00 +29°C° 0 mm 2 mps 745 mmHg 69%
    10:00 +30°C° 0 mm 2 mps 745 mmHg 61%
    11:00 +31°C° 0 mm 2 mps 745 mmHg 57%
    12:00 +33°C° 0 mm 3 mps 745 mmHg 52%
    13:00 +34°C° 0 mm 3 mps 744 mmHg 48%
    14:00 +34°C° 0.1 mm 3 mps 744 mmHg 52%
    15:00 +33°C° 0.1 mm 3 mps 744 mmHg 57%
    16:00 +31°C° 0.1 mm 2 mps 743 mmHg 61%
    17:00 +30°C° 0.2 mm 2 mps 743 mmHg 67%
    18:00 +29°C° 0.2 mm 1 mps 743 mmHg 74%
    19:00 +27°C° 0.2 mm 1 mps 743 mmHg 80%
    20:00 +26°C° 1.1 mm 1 mps 743 mmHg 84%
    21:00 +25°C° 1.1 mm 2 mps 743 mmHg 88%
    22:00 +25°C° 1.1 mm 2 mps 743 mmHg 92%
    23:00 +24°C° 3.5 mm 2 mps 743 mmHg 93%

    Tomorrow, 18 July, Thursday

    Time Temperature Precipitation Wind Pressure Humidity
    00:00 +24°C° 3.5 mm 1 mps 742 mmHg 94%
    01:00 +24°C° 3.5 mm 1 mps 742 mmHg 96%
    02:00 +24°C° 0.7 mm 1 mps 742 mmHg 96%
    03:00 +24°C° 0.7 mm 1 mps 742 mmHg 96%
    04:00 +23°C° 0.7 mm 1 mps 742 mmHg 96%
    05:00 +24°C° 0.6 mm 1 mps 742 mmHg 96%
    06:00 +24°C° 0.6 mm 1 mps 742 mmHg 95%
    07:00 +24°C° 0.6 mm 1 mps 743 mmHg 95%
    08:00 +25°C° 0.6 mm 1 mps 743 mmHg 93%
    09:00 +26°C° 0.6 mm 1 mps 743 mmHg 92%
    10:00 +26°C° 0.6 mm 1 mps 743 mmHg 90%
    11:00 +26°C° 1.1 mm 2 mps 743 mmHg 91%
    12:00 +26°C° 1.1 mm 2 mps 743 mmHg 91%
    13:00 +25°C° 1.1 mm 3 mps 743 mmHg 91%
    14:00 +25°C° 0.2 mm 3 mps 743 mmHg 90%
    15:00 +23°C° 0.2 mm 4 mps 743 mmHg 88%
    16:00 +23°C° 0.2 mm 4 mps 743 mmHg 87%
    17:00 +22°C° 0 mm 3 mps 743 mmHg 88%
    18:00 +22°C° 0 mm 3 mps 743 mmHg 88%
    19:00 +22°C° 0 mm 3 mps 743 mmHg 89%
    20:00 +21°C° 0 mm 3 mps 743 mmHg 88%
    21:00 +21°C° 0 mm 2 mps 743 mmHg 88%
    22:00 +21°C° 0 mm 2 mps 743 mmHg 88%
    23:00 +21°C° 0 mm 2 mps 743 mmHg 89%

    Day after tomorrow, 19 July, Friday

    Time Temperature Precipitation Wind Pressure Humidity
    00:00 +21°C° 0 mm 2 mps 743 mmHg 90%
    01:00 +20°C° 0 mm 2 mps 743 mmHg 91%
    02:00 +20°C° 0 mm 2 mps 743 mmHg 92%
    03:00 +20°C° 0 mm 1 mps 743 mmHg 94%
    04:00 +20°C° 0 mm 1 mps 743 mmHg 95%
    05:00 +21°C° 0 mm 1 mps 744 mmHg 91%
    06:00 +22°C° 0 mm 1 mps 744 mmHg 86%
    07:00 +22°C° 0 mm 0 mps 744 mmHg 82%
    08:00 +26°C° 0 mm 1 mps 744 mmHg 76%
    09:00 +28°C° 0 mm 1 mps 744 mmHg 69%
    10:00 +30°C° 0 mm 1 mps 744 mmHg 62%
    11:00 +31°C° 0 mm 2 mps 744 mmHg 59%
    12:00 +32°C° 0 mm 2 mps 744 mmHg 55%
    13:00 +34°C° 0 mm 3 mps 744 mmHg 52%
    14:00 +34°C° 0 mm 3 mps 743 mmHg 51%
    15:00 +35°C° 0 mm 3 mps 743 mmHg 51%
    16:00 +35°C° 0 mm 3 mps 742 mmHg 50%
    17:00 +33°C° 0 mm 3 mps 742 mmHg 58%
    18:00 +30°C° 0 mm 3 mps 742 mmHg 67%
    19:00 +28°C° 0 mm 3 mps 742 mmHg 75%
    20:00 +28°C° 0 mm 3 mps 742 mmHg 78%
    21:00 +27°C° 0 mm 2 mps 742 mmHg 81%
    22:00 +26°C° 0 mm 2 mps 742 mmHg 84%
    23:00 +26°C° 0 mm 2 mps 742 mmHg 85%

    20 July, Saturday

    Time Temperature Precipitation Wind Pressure Humidity
    00:00 +26°C° 0 mm 2 mps 742 mmHg 86%
    01:00 +26°C° 0 mm 2 mps 741 mmHg 87%
    02:00 +26°C° 0 mm 2 mps 741 mmHg 88%
    03:00 +26°C° 0 mm 2 mps 741 mmHg 89%
    04:00 +26°C° 0 mm 2 mps 741 mmHg 91%
    05:00 +27°C° 0 mm 2 mps 742 mmHg 85%
    06:00 +28°C° 0 mm 2 mps 742 mmHg 80%
    07:00 +30°C° 0 mm 2 mps 742 mmHg 75%
    08:00 +32°C° 0 mm 2 mps 742 mmHg 67%
    09:00 +34°C° 0 mm 2 mps 742 mmHg 59%
    10:00 +36°C° 0 mm 3 mps 742 mmHg 52%
    11:00 +37°C° 0 mm 3 mps 741 mmHg 48%
    12:00 +38°C° 0 mm 4 mps 741 mmHg 44%
    13:00 +40°C° 0 mm 4 mps 740 mmHg 40%
    14:00 +40°C° 0 mm 4 mps 740 mmHg 39%
    15:00 +40°C° 0 mm 4 mps 740 mmHg 38%
    16:00 +40°C° 0 mm 4 mps 739 mmHg 37%
    17:00 +38°C° 0 mm 4 mps 739 mmHg 45%
    18:00 +36°C° 0 mm 4 mps 739 mmHg 52%
    19:00 +34°C° 0 mm 3 mps 739 mmHg 60%
    20:00 +33°C° 0 mm 3 mps 739 mmHg 62%
    21:00 +33°C° 0 mm 3 mps 739 mmHg 64%
    22:00 +31°C° 0 mm 3 mps 740 mmHg 65%
    23:00 +30°C° 0 mm 3 mps 739 mmHg 68%

    21 July, Sunday

    Time Temperature Precipitation Wind Pressure Humidity
    00:00 +29°C° 0 mm 2 mps 739 mmHg 71%
    01:00 +28°C° 0 mm 2 mps 739 mmHg 74%
    02:00 +27°C° 0 mm 2 mps 739 mmHg 77%
    03:00 +27°C° 0 mm 2 mps 739 mmHg 79%
    04:00 +26°C° 0 mm 1 mps 739 mmHg 81%
    05:00 +26°C° 0 mm 1 mps 740 mmHg 79%
    06:00 +27°C° 0 mm 2 mps 740 mmHg 76%
    07:00 +28°C° 0 mm 2 mps 740 mmHg 73%
    08:00 +29°C° 0 mm 2 mps 740 mmHg 66%
    09:00 +31°C° 0 mm 2 mps 741 mmHg 59%
    10:00 +32°C° 0 mm 2 mps 741 mmHg 52%
    11:00 +34°C° 0 mm 3 mps 741 mmHg 46%
    12:00 +35°C° 0 mm 3 mps 741 mmHg 39%
    13:00 +36°C° 0 mm 3 mps 740 mmHg 32%
    14:00 +35°C° 0 mm 3 mps 740 mmHg 31%
    15:00 +35°C° 0 mm 3 mps 740 mmHg 29%
    16:00 +35°C° 0 mm 3 mps 740 mmHg 28%
    17:00 +33°C° 0 mm 3 mps 740 mmHg 38%
    18:00 +29°C° 0 mm 3 mps 740 mmHg 47%
    19:00 +27°C° 0 mm 2 mps 740 mmHg 57%
    20:00 +27°C° 0 mm 2 mps 741 mmHg 58%
    21:00 +26°C° 0 mm 2 mps 741 mmHg 58%
    22:00 +25°C° 0 mm 2 mps 741 mmHg 59%
    23:00 +25°C° 0 mm 3 mps 741 mmHg 61%

    22 July, Monday

    Time Temperature Precipitation Wind Pressure Humidity
    00:00 +24°C° 0 mm 3 mps 741 mmHg 64%
    01:00 +24°C° 0 mm 3 mps 741 mmHg 66%
    02:00 +22°C° 0 mm 3 mps 741 mmHg 70%
    03:00 +21°C° 0 mm 3 mps 741 mmHg 74%
    04:00 +20°C° 0 mm 2 mps 741 mmHg 78%
    05:00 +21°C° 0 mm 2 mps 741 mmHg 73%
    06:00 +23°C° 0 mm 2 mps 742 mmHg 68%
    07:00 +24°C° 0 mm 3 mps 742 mmHg 63%
    08:00 +25°C° 0 mm 3 mps 742 mmHg 57%
    09:00 +25°C° 0 mm 3 mps 742 mmHg 52%
    10:00 +26°C° 0 mm 3 mps 742 mmHg 47%
    11:00 +24°C° 0.4 mm 3 mps 742 mmHg 59%
    12:00 +21°C° 0.4 mm 3 mps 742 mmHg 71%
    13:00 +19°C° 0.4 mm 3 mps 742 mmHg 84%
    14:00 +19°C° 1 mm 2 mps 742 mmHg 86%
    15:00 +18°C° 1 mm 2 mps 742 mmHg 88%
    16:00 +19°C° 1 mm 1 mps 742 mmHg 90%
    17:00 +19°C° 0.1 mm 1 mps 742 mmHg 88%
    18:00 +19°C° 0.1 mm 1 mps 743 mmHg 87%
    19:00 +19°C° 0.1 mm 1 mps 743 mmHg 85%
    20:00 +19°C° 0 mm 1 mps 743 mmHg 85%
    21:00 +19°C° 0 mm 1 mps 743 mmHg 86%
    22:00 +18°C° 0 mm 1 mps 743 mmHg 86%
    23:00 +18°C° 0 mm 1 mps 743 mmHg 86%
    Show more